Weather in Zwiesel

Germany     49°01′08″N   13°13′53″E
temp.,
°C
wind,
m/s
gust,
m/s
humid.,
%
clouds,
%
prec.,
mm/h
press.,
hPa
HPBL,
m
22 october, fri
fri2223:00+6wsw5147898 0.1 10141135
02:00+6wsw51296100 1.7 10141310
05:00+4w289384 0.8 1016668
08:00+1wsw11974 0.9 101826
11:00+5w310705 0.0 1019915
14:00+7wsw611555 0.0 10181190
17:00+6wsw613605 0.0 10191320
20:00+3w4127655 0.0 1022951
23 october, sat
sat2323:00+4wsw4107475 0.0 10231066
02:00+2wsw288898 0.0 1025627
05:00+2sw2592100 0.1 1025306
08:00+2sw2396100 0.1 1027230
11:00+4w367363 0.1 10281024
14:00+6w465583 0.1 10271407
17:00+6wnw24616 0.0 1028657
20:00+1ne11785 0.0 103110
24 october, sun
sun2423:00+1ene2179100 0.0 103212
02:000ene2281100 0.0 103214
05:000ene21794 0.0 103114
08:000ene22750 0.0 103019
11:00+9e12410 0.0 1027348
14:00+13se23330 0.0 1025701
17:00+9se11570 0.0 102411
20:00+4e21620 0.0 102611
25 october, mon
mon2523:00+3ese11610 0.0 102510
02:00+3ese11740 0.0 102510
05:00+2se22830 0.0 102513
08:00+1se22880 0.0 102514
11:00+8s126198 0.0 1024226
14:00+11ssw1152100 0.0 1022401
17:00+8sw1174100 0.0 102210
20:00+5ese0184100 0.0 102410
26 october, tue
tue2623:00+5nne1179100 0.0 102410
02:00+4ne1178100 0.0 102510
05:00+4wsw0078100 0.0 102610
08:00+3wsw008490 0.0 102610
11:00+9wsw126415 0.0 1026358
14:00+11wsw23615 0.0 1025854
17:00+9wsw11775 0.0 102524
20:00+5nnw11928 0.0 102711